CW1238 Weather Reports


Display with metric or nautical units.
time (UTC)temp
F
wind
direction
speed
MPH
gust
MPH
rain 1hr
in
rain 24hr
in
rain mn
in
humidity
%
barometer
mb
20260510035558 46 245 0.0 0.0 0.00 0.00 0.00 45 1052.9
20260510035057 46 199 0.0 0.0 0.00 0.00 0.00 47 1052.9
20260510034556 47 188 0.0 0.0 0.00 0.00 0.00 45 1052.9
20260510034053 47 210 0.0 0.0 0.00 0.00 0.00 43 1052.7
20260510033548 48 263 0.0 0.0 0.00 0.00 0.00 42 1052.6
20260510033046 48 232 0.0 0.0 0.00 0.00 0.00 41 1052.7
20260510032543 48 224 0.0 0.0 0.00 0.00 0.00 42 1052.7
20260510032038 48 220 0.0 0.0 0.00 0.00 0.00 43 1052.7
20260510031533 49 212 0.0 0.0 0.00 0.00 0.00 41 1052.3
20260510031029 49 228 0.0 1.0 0.00 0.00 0.00 40 1052.3
20260510030526 49 241 1.0 1.0 0.00 0.00 0.00 40 1052.5
20260510030023 49 216 0.0 1.0 0.00 0.00 0.00 39 1052.2
20260510025520 50 212 0.0 0.0 0.00 0.00 0.00 39 1052.0
20260510025017 49 207 0.0 0.0 0.00 0.00 0.00 39 1052.2
20260510024514 49 205 0.0 0.0 0.00 0.00 0.00 41 1052.0
20260510024010 50 194 0.0 1.0 0.00 0.00 0.00 38 1051.8
20260510023506 51 207 0.0 1.0 0.00 0.00 0.00 38 1051.6
20260510023004 52 253 1.0 1.0 0.00 0.00 0.00 37 1051.6
20260510022502 52 188 1.0 1.0 0.00 0.00 0.00 36 1051.5
20260510022002 52 226 1.0 2.0 0.00 0.00 0.00 36 1051.4
20260510021500 53 286 0.0 1.0 0.00 0.00 0.00 37 1051.3
20260510020956 53 241 1.0 2.0 0.00 0.00 0.00 35 1051.1
20260510020451 53 251 1.0 1.0 0.00 0.00 0.00 36 1050.9
20260510015946 54 218 0.0 2.0 0.00 0.00 0.00 35 1050.8
20260510015443 54 192 2.0 2.0 0.00 0.00 0.00 34 1050.7
20260510014938 54 241 2.0 3.0 0.00 0.00 0.00 35 1050.6
20260510014436 54 192 1.0 2.0 0.00 0.00 0.00 34 1050.5
20260510013932 55 250 1.0 2.0 0.00 0.00 0.00 35 1050.3
20260510013427 55 227 2.0 3.0 0.00 0.00 0.00 33 1050.2
20260510012923 56 315 2.0 3.0 0.00 0.00 0.00 33 1050.2
20260510012418 56 235 1.0 4.0 0.00 0.00 0.00 32 1050.2
20260510011913 56 358 3.0 3.0 0.00 0.00 0.00 31 1050.2
20260510011408 56 333 3.0 3.0 0.00 0.00 0.00 31 1050.0
20260510010904 57 220 1.0 3.0 0.00 0.00 0.00 31 1050.0
20260510010402 57 357 2.0 6.0 0.00 0.00 0.00 30 1049.7
20260510005858 57 245 1.0 4.0 0.00 0.00 0.00 31 1049.8
20260510005355 57 205 1.0 2.0 0.00 0.00 0.00 32 1049.7
20260510004852 58 228 1.0 3.0 0.00 0.00 0.00 30 1049.7
20260510004350 58 243 2.0 6.0 0.00 0.00 0.00 30 1049.4
20260510003847 58 280 2.0 3.0 0.00 0.00 0.00 30 1049.5
20260510003344 59 327 3.0 6.0 0.00 0.00 0.00 31 1049.4
20260510002842 59 217 2.0 4.0 0.00 0.00 0.00 30 1049.3
20260510002340 59 335 2.0 3.0 0.00 0.00 0.00 30 1049.0
20260510001836 59 293 1.0 3.0 0.00 0.00 0.00 30 1049.0
20260510001335 59 338 1.0 3.0 0.00 0.00 0.00 30 1048.9
20260510000831 59 341 4.0 6.0 0.00 0.00 0.00 29 1048.9
20260510000328 59 311 5.0 9.0 0.00 0.00 0.00 27 1048.9
20260509235825 60 203 2.0 4.0 0.00 0.00 0.00 30 1048.9
20260509235321 60 236 2.0 3.0 0.00 0.00 0.00 29 1048.8
20260509234817 60 241 2.0 4.0 0.00 0.00 0.00 29 1048.7
20260509234314 60 208 3.0 7.0 0.00 0.00 0.00 29 1048.7
20260509233812 61 301 2.0 6.0 0.00 0.00 0.00 28 1048.7
20260509233310 61 236 2.0 11.0 0.00 0.00 0.00 27 1048.6
20260509232805 61 335 2.0 7.0 0.00 0.00 0.00 28 1048.4
20260509232306 62 168 1.0 3.0 0.00 0.00 0.00 28 1048.4
20260509231759 61 324 1.0 3.0 0.00 0.00 0.00 27 1048.4
20260509231256 62 347 2.0 4.0 0.00 0.00 0.00 27 1048.4
20260509230754 62 329 3.0 6.0 0.00 0.00 0.00 28 1048.4
20260509230251 62 208 5.0 7.0 0.00 0.00 0.00 26 1048.1
20260509225745 62 241 2.0 8.0 0.00 0.00 0.00 27 1048.1
20260509225242 62 277 2.0 8.0 0.00 0.00 0.00 26 1048.1
20260509224738 62 341 4.0 9.0 0.00 0.00 0.00 26 1047.9
20260509224236 63 115 3.0 4.0 0.00 0.00 0.00 28 1047.8
20260509223732 62 289 6.0 9.0 0.00 0.00 0.00 27 1048.0
20260509223229 63 301 2.0 4.0 0.00 0.00 0.00 28 1048.0
20260509222726 63 220 1.0 8.0 0.00 0.00 0.00 30 1047.8
20260509222221 63 212 2.0 6.0 0.00 0.00 0.00 28 1047.5
20260509221717 63 345 2.0 7.0 0.00 0.00 0.00 29 1047.7
20260509221213 63 308 4.0 8.0 0.00 0.00 0.00 27 1047.5
20260509220709 63 315 4.0 7.0 0.00 0.00 0.00 28 1047.6
20260509220206 64 312 3.0 7.0 0.00 0.00 0.00 26 1047.3
20260509215701 63 344 2.0 9.0 0.00 0.00 0.00 29 1047.4
20260509215158 63 304 7.0 10.0 0.00 0.00 0.00 26 1047.3
20260509214656 63 277 3.0 8.0 0.00 0.00 0.00 28 1047.4
20260509214152 64 350 6.0 9.0 0.00 0.00 0.00 28 1047.3
20260509213649 63 344 4.0 7.0 0.00 0.00 0.00 29 1047.2
20260509213139 63 320 3.0 6.0 0.00 0.00 0.00 28 1047.4
20260509212637 64 322 3.0 9.0 0.00 0.00 0.00 30 1047.2
20260509212133 63 169 1.0 7.0 0.00 0.00 0.00 30 1047.2
20260509211629 62 264 4.0 7.0 0.00 0.00 0.00 30 1047.3
20260509211126 63 308 3.0 4.0 0.00 0.00 0.00 30 1047.2
20260509210623 63 247 2.0 4.0 0.00 0.00 0.00 29 1046.8
20260509210120 64 138 3.0 4.0 0.00 0.00 0.00 29 1046.7
20260509205614 64 295 4.0 10.0 0.00 0.00 0.00 30 1046.9
20260509205109 64 265 4.0 7.0 0.00 0.00 0.00 29 1046.8
20260509204606 64 295 4.0 9.0 0.00 0.00 0.00 28 1046.8
20260509204103 65 349 4.0 13.0 0.00 0.00 0.00 29 1046.9
20260509203558 65 324 2.0 6.0 0.00 0.00 0.00 33 1046.6
20260509203057 65 305 5.0 7.0 0.00 0.00 0.00 30 1046.7
20260509202551 64 322 2.0 7.0 0.00 0.00 0.00 33 1046.5
20260509202047 65 9 6.0 9.0 0.00 0.00 0.00 31 1046.6
20260509201542 64 344 5.0 7.0 0.00 0.00 0.00 31 1046.5
20260509201040 64 355 2.0 7.0 0.00 0.00 0.00 35 1046.7
20260509200539 64 22 3.0 7.0 0.00 0.00 0.00 33 1046.8
20260509200036 64 310 4.0 4.0 0.00 0.00 0.00 33 1046.5
20260509195531 64 22 5.0 7.0 0.00 0.00 0.00 32 1046.4
20260509195026 64 275 3.0 10.0 0.00 0.00 0.00 32 1046.5
20260509194521 64 11 6.0 10.0 0.00 0.00 0.00 33 1046.4
20260509194018 64 328 4.0 7.0 0.00 0.00 0.00 35 1046.3
20260509193513 63 141 3.0 9.0 0.00 0.00 0.00 32 1046.4
20260509193010 64 317 6.0 10.0 0.00 0.00 0.00 32 1046.4
20260509192506 64 290 2.0 10.0 0.00 0.00 0.00 35 1046.4
20260509192001 65 261 4.0 6.0 0.00 0.00 0.00 33 1046.2
20260509191456 64 312 4.0 7.0 0.00 0.00 0.00 33 1046.0
20260509190952 64 4 2.0 11.0 0.00 0.00 0.00 37 1046.2
20260509190449 64 72 6.0 9.0 0.00 0.00 0.00 34 1045.9
20260509185947 64 337 4.0 9.0 0.00 0.00 0.00 35 1045.9
20260509185444 63 197 4.0 8.0 0.00 0.00 0.00 37 1045.9
20260509184941 63 345 4.0 8.0 0.00 0.00 0.00 34 1046.0
20260509184439 62 199 3.0 4.0 0.00 0.00 0.00 36 1045.9
20260509183935 62 307 6.0 8.0 0.00 0.00 0.00 37 1046.0
20260509183429 63 294 6.0 11.0 0.00 0.00 0.00 37 1045.6
20260509182926 63 64 4.0 8.0 0.00 0.00 0.00 41 1045.9
20260509182422 63 204 4.0 6.0 0.00 0.00 0.00 38 1045.7
20260509181920 63 198 3.0 6.0 0.00 0.00 0.00 42 1045.6
20260509181418 63 271 4.0 9.0 0.00 0.00 0.00 40 1045.7
20260509180914 63 276 5.0 7.0 0.00 0.00 0.00 41 1045.8
20260509180410 63 351 4.0 10.0 0.00 0.00 0.00 41 1045.7
20260509175907 63 316 4.0 6.0 0.00 0.00 0.00 43 1045.7
20260509175403 62 335 4.0 7.0 0.00 0.00 0.00 42 1045.6
20260509174859 63 326 3.0 7.0 0.00 0.00 0.00 43 1045.6
20260509174356 62 305 3.0 6.0 0.00 0.00 0.00 44 1045.6
20260509173852 62 278 4.0 9.0 0.00 0.00 0.00 43 1045.7
20260509173352 63 299 4.0 7.0 0.00 0.00 0.00 43 1045.5
20260509172849 62 301 7.0 9.0 0.00 0.00 0.00 45 1045.3
20260509172346 62 306 8.0 11.0 0.00 0.00 0.00 42 1045.2
20260509171841 62 274 5.0 10.0 0.00 0.00 0.00 43 1045.5
20260509171337 62 327 4.0 7.0 0.00 0.00 0.00 45 1045.4
20260509170834 62 84 5.0 7.0 0.00 0.00 0.00 44 1045.4
20260509170330 62 24 2.0 7.0 0.00 0.00 0.00 47 1045.4
20260509165830 62 23 3.0 7.0 0.00 0.00 0.00 47 1045.4
20260509165324 62 346 5.0 8.0 0.00 0.00 0.00 48 1045.2
20260509164820 62 276 4.0 7.0 0.00 0.00 0.00 47 1045.1
20260509164317 62 6 4.0 10.0 0.00 0.00 0.00 47 1045.1
20260509163813 62 304 4.0 8.0 0.00 0.00 0.00 50 1045.0
20260509163310 63 311 2.0 9.0 0.00 0.00 0.00 49 1045.0
20260509162809 63 81 4.0 7.0 0.00 0.00 0.00 49 1044.8
20260509162306 63 290 6.0 8.0 0.00 0.00 0.00 48 1044.8
20260509161759 62 206 4.0 8.0 0.00 0.00 0.00 49 1044.9
20260509161255 62 306 5.0 8.0 0.00 0.00 0.00 50 1044.9
20260509160750 62 270 2.0 4.0 0.00 0.00 0.00 51 1044.9
20260509160247 61 343 5.0 9.0 0.00 0.00 0.00 54 1044.7
20260509155742 60 281 7.0 9.0 0.00 0.00 0.00 54 1044.7
20260509155239 62 197 2.0 6.0 0.00 0.00 0.00 58 1044.6
20260509154736 61 341 2.0 9.0 0.00 0.00 0.00 55 1044.6
20260509154233 60 210 6.0 8.0 0.00 0.00 0.00 58 1044.7
20260509153730 60 248 6.0 9.0 0.00 0.00 0.00 56 1044.7
20260509153225 60 276 4.0 8.0 0.00 0.00 0.00 57 1044.6
20260509152722 61 272 4.0 7.0 0.00 0.00 0.00 57 1044.6
20260509152218 60 22 3.0 9.0 0.00 0.00 0.00 60 1044.5
20260509151715 59 248 6.0 9.0 0.00 0.00 0.00 58 1044.6
20260509151212 59 268 5.0 10.0 0.00 0.00 0.00 58 1044.4
20260509150710 59 297 8.0 10.0 0.00 0.00 0.00 58 1044.3
20260509150208 60 274 8.0 11.0 0.00 0.00 0.00 56 1044.3
20260509145704 60 267 4.0 7.0 0.00 0.00 0.00 57 1044.1
20260509145159 60 246 3.0 6.0 0.00 0.00 0.00 56 1044.1
20260509144656 59 44 1.0 4.0 0.00 0.00 0.00 59 1044.2
20260509144153 59 339 3.0 7.0 0.00 0.00 0.00 59 1044.2
20260509143650 58 295 6.0 7.0 0.00 0.00 0.00 59 1044.0
20260509143148 59 255 5.0 8.0 0.00 0.00 0.00 58 1043.9
20260509142643 58 335 4.0 6.0 0.00 0.00 0.00 59 1043.9
20260509142140 58 269 4.0 7.0 0.00 0.00 0.00 58 1043.9
20260509141636 58 329 6.0 10.0 0.00 0.00 0.00 57 1043.9
20260509141132 57 36 5.0 11.0 0.00 0.00 0.00 60 1043.9
20260509140629 57 276 4.0 9.0 0.00 0.00 0.00 59 1043.8
20260509140127 57 296 4.0 6.0 0.00 0.00 0.00 58 1043.9
20260509135624 57 301 3.0 7.0 0.00 0.00 0.00 57 1043.8
20260509135122 57 306 3.0 4.0 0.00 0.00 0.00 56 1043.5
20260509134618 58 251 4.0 4.0 0.00 0.00 0.00 55 1043.5
20260509134116 58 305 2.0 2.0 0.00 0.00 0.00 51 1043.4
20260509133613 59 310 3.0 4.0 0.00 0.00 0.00 51 1043.5
20260509133110 57 250 1.0 3.0 0.00 0.00 0.00 54 1043.6
20260509132609 56 260 2.0 3.0 0.00 0.00 0.00 52 1043.5
20260509132107 55 186 0.0 1.0 0.00 0.00 0.00 55 1043.7
20260509131602 55 232 2.0 4.0 0.00 0.00 0.00 52 1043.7
20260509131100 55 287 1.0 2.0 0.00 0.00 0.00 54 1043.5
20260509130555 54 250 1.0 2.0 0.00 0.00 0.00 51 1043.3
20260509130052 53 268 1.0 3.0 0.00 0.00 0.00 51 1043.5
20260509125548 53 282 2.0 4.0 0.00 0.00 0.00 52 1043.7
20260509125045 53 277 2.0 4.0 0.00 0.00 0.00 51 1043.4
20260509124541 53 219 1.0 7.0 0.00 0.00 0.00 51 1043.4
20260509124039 52 257 1.0 2.0 0.00 0.00 0.00 52 1043.3
20260509123537 52 229 3.0 4.0 0.00 0.00 0.00 51 1043.4
20260509123033 52 287 1.0 6.0 0.00 0.00 0.00 50 1043.6
20260509122529 52 320 2.0 6.0 0.00 0.00 0.00 50 1043.3
20260509122026 52 239 2.0 3.0 0.00 0.00 0.00 50 1043.2
20260509121523 52 273 4.0 4.0 0.00 0.00 0.00 50 1043.3
20260509121021 52 280 1.0 3.0 0.00 0.00 0.00 50 1042.9
20260509120519 52 284 2.0 3.0 0.00 0.00 0.00 50 1043.2
20260509120017 52 212 2.0 4.0 0.00 0.00 0.00 50 1043.0
20260509115513 52 245 1.0 3.0 0.00 0.00 0.00 50 1042.8
20260509115012 52 245 2.0 4.0 0.00 0.00 0.00 49 1042.7
20260509114509 51 225 2.0 2.0 0.00 0.00 0.00 51 1042.7
20260509114008 51 246 1.0 2.0 0.00 0.00 0.00 51 1042.7
20260509113505 50 286 3.0 4.0 0.00 0.00 0.00 52 1042.6
20260509113003 50 288 3.0 4.0 0.00 0.00 0.00 52 1042.4
20260509112459 49 282 2.0 3.0 0.00 0.00 0.00 53 1041.7
20260509111955 48 218 4.0 7.0 0.00 0.00 0.00 54 1041.2
20260509111454 48 210 0.0 1.0 0.00 0.00 0.00 54 1041.1
20260509110951 48 255 2.0 2.0 0.00 0.00 0.00 55 1040.8
20260509110447 48 215 0.0 1.0 0.00 0.00 0.00 54 1040.9
20260509105944 48 194 3.0 4.0 0.00 0.00 0.00 54 1040.8
20260509105443 48 205 1.0 2.0 0.00 0.00 0.00 55 1040.9
20260509104940 48 211 1.0 1.0 0.00 0.00 0.00 54 1040.9
20260509104437 47 180 1.0 1.0 0.00 0.00 0.00 56 1040.8
20260509103934 46 198 2.0 2.0 0.00 0.00 0.00 58 1041.0
20260509103431 45 181 0.0 1.0 0.00 0.00 0.00 61 1041.0
20260509102930 44 177 0.0 0.0 0.00 0.00 0.00 62 1041.1
20260509102427 44 190 0.0 1.0 0.00 0.00 0.00 63 1041.1
20260509101922 43 199 0.0 0.0 0.00 0.00 0.00 64 1041.1
20260509101419 43 189 0.0 0.0 0.00 0.00 0.00 65 1041.2
20260509100916 43 190 0.0 0.0 0.00 0.00 0.00 65 1041.0
20260509100414 43 194 0.0 0.0 0.00 0.00 0.00 65 1041.2
20260509095910 43 190 0.0 0.0 0.00 0.00 0.00 66 1041.2
20260509095408 42 192 0.0 0.0 0.00 0.00 0.00 67 1041.3
20260509094904 43 195 0.0 0.0 0.00 0.00 0.00 66 1041.4
20260509094400 43 195 0.0 0.0 0.00 0.00 0.00 66 1041.2
20260509093859 42 191 0.0 0.0 0.00 0.00 0.00 68 1041.3
20260509093355 41 195 0.0 0.0 0.00 0.00 0.00 69 1041.2
20260509092854 42 195 0.0 0.0 0.00 0.00 0.00 67 1041.2
20260509092351 43 195 0.0 0.0 0.00 0.00 0.00 67 1041.3
20260509091849 44 195 0.0 0.0 0.00 0.00 0.00 64 1041.2
20260509091346 45 211 0.0 0.0 0.00 0.00 0.00 60 1041.3
20260509090843 45 188 0.0 1.0 0.00 0.00 0.00 60 1041.2
20260509090341 45 196 0.0 0.0 0.00 0.00 0.00 60 1041.3
20260509085838 44 189 0.0 0.0 0.00 0.00 0.00 63 1041.4
20260509085335 43 194 0.0 0.0 0.00 0.00 0.00 65 1041.2
20260509084831 44 192 0.0 0.0 0.00 0.00 0.00 65 1041.5
20260509084328 44 198 0.0 0.0 0.00 0.00 0.00 64 1041.3
20260509083826 44 195 0.0 0.0 0.00 0.00 0.00 64 1041.3
20260509083323 45 195 0.0 0.0 0.00 0.00 0.00 64 1041.3
20260509082819 45 204 0.0 0.0 0.00 0.00 0.00 63 1041.5
20260509082316 46 195 0.0 0.0 0.00 0.00 0.00 61 1041.4
20260509081814 46 202 0.0 0.0 0.00 0.00 0.00 61 1041.3
20260509081310 46 191 0.0 0.0 0.00 0.00 0.00 59 1041.4
20260509080809 44 184 0.0 0.0 0.00 0.00 0.00 60 1041.2
20260509080306 44 191 0.0 0.0 0.00 0.00 0.00 65 1041.4
20260509075804 45 194 0.0 0.0 0.00 0.00 0.00 65 1041.4
20260509075301 45 197 0.0 0.0 0.00 0.00 0.00 64 1041.5
20260509074758 46 198 0.0 0.0 0.00 0.00 0.00 63 1041.6
20260509074256 47 196 0.0 0.0 0.00 0.00 0.00 60 1041.4
20260509073751 47 197 0.0 0.0 0.00 0.00 0.00 59 1041.5
20260509073248 47 195 0.0 0.0 0.00 0.00 0.00 60 1041.6
20260509072744 47 193 0.0 0.0 0.00 0.00 0.00 59 1041.6
20260509072241 48 189 0.0 0.0 0.00 0.00 0.00 58 1041.4
20260509071738 49 190 0.0 0.0 0.00 0.00 0.00 56 1041.6
20260509071236 49 195 0.0 0.0 0.00 0.00 0.00 53 1041.7
20260509070732 50 200 0.0 0.0 0.00 0.00 0.00 53 1041.7
20260509070229 50 193 0.0 0.0 0.00 0.00 0.00 52 1041.8
20260509065725 50 193 0.0 0.0 0.00 0.00 0.00 48 1041.9
20260509065221 48 192 0.0 0.0 0.00 0.00 0.00 52 1042.0
20260509064718 48 190 0.0 0.0 0.00 0.00 0.00 53 1042.1
20260509064216 49 190 0.0 0.0 0.00 0.00 0.00 51 1042.1
20260509063713 49 193 0.0 0.0 0.00 0.00 0.00 51 1042.2
20260509063209 50 194 0.0 0.0 0.00 0.00 0.00 50 1042.1
20260509062706 50 194 0.0 0.0 0.00 0.00 0.00 50 1042.3
20260509062203 50 194 0.0 0.0 0.00 0.00 0.00 49 1042.2
20260509061700 51 183 0.0 0.0 0.00 0.00 0.00 48 1042.2
20260509061158 53 189 0.0 0.0 0.00 0.00 0.00 46 1042.0
20260509060655 53 198 0.0 0.0 0.00 0.00 0.00 45 1042.1
20260509060151 54 200 0.0 0.0 0.00 0.00 0.00 43 1042.1
20260509055647 53 207 0.0 0.0 0.00 0.00 0.00 45 1042.0
20260509055143 54 188 0.0 0.0 0.00 0.00 0.00 44 1042.0
20260509054640 55 193 0.0 0.0 0.00 0.00 0.00 43 1042.1
20260509054137 56 209 0.0 0.0 0.00 0.00 0.00 42 1041.9
20260509053636 56 201 0.0 0.0 0.00 0.00 0.00 43 1042.0
20260509053133 57 209 0.0 2.0 0.00 0.00 0.00 41 1041.9
20260509052631 57 304 1.0 2.0 0.00 0.00 0.00 40 1042.1
20260509052128 57 263 0.0 2.0 0.00 0.00 0.00 41 1042.0
20260509051626 57 223 0.0 1.0 0.00 0.00 0.00 40 1042.2
20260509051123 57 197 0.0 0.0 0.00 0.00 0.00 40 1042.0
20260509050620 58 193 0.0 1.0 0.00 0.00 0.00 39 1042.1
20260509050115 58 236 1.0 2.0 0.00 0.00 0.00 39 1042.1
20260509045613 58 258 1.0 3.0 0.00 0.00 0.00 39 1042.4
20260509045110 59 275 1.0 2.0 0.00 0.00 0.00 38 1042.3
20260509044607 58 210 0.0 2.0 0.00 0.00 0.00 38 1042.2
20260509044104 59 192 1.0 2.0 0.00 0.00 0.00 37 1042.3
20260509043601 59 244 0.0 2.0 0.00 0.00 0.00 38 1042.0
20260509043056 59 203 0.0 1.0 0.00 0.00 0.00 38 1042.1
20260509042553 59 237 1.0 2.0 0.00 0.00 0.00 37 1042.1
20260509042049 59 321 0.0 2.0 0.00 0.00 0.00 37 1042.1
20260509041547 59 205 0.0 0.0 0.00 0.00 0.00 38 1041.8
20260509041044 59 289 1.0 2.0 0.00 0.00 0.00 37 1042.0
20260509040542 59 277 1.0 2.0 0.00 0.00 0.00 37 1041.8